TimeCDT,TemperatureF,Dew PointF,Humidity,Sea Level PressureIn,VisibilityMPH,Wind Direction,Wind SpeedMPH,Gust SpeedMPH,PrecipitationIn,Events,Conditions,WindDirDegrees,DateUTC
12:54 AM,39.9,39.9,100,29.88,5.0,NW,4.6,-,N/A,,Clear,320,2012-03-15 05:54:00
1:54 AM,37.9,37.0,97,29.91,6.0,Calm,Calm,-,N/A,,Clear,0,2012-03-15 06:54:00
2:54 AM,36.0,35.1,97,29.94,6.0,Calm,Calm,-,N/A,,Clear,0,2012-03-15 07:54:00
3:54 AM,36.0,34.0,93,29.95,8.0,Calm,Calm,-,N/A,,Scattered Clouds,0,2012-03-15 08:54:00
4:54 AM,36.0,35.1,97,29.96,10.0,NNW,3.5,-,N/A,,Clear,330,2012-03-15 09:54:00
5:54 AM,37.0,34.0,89,29.99,10.0,NNW,3.5,-,N/A,,Clear,330,2012-03-15 10:54:00
6:54 AM,41.0,32.0,70,30.01,10.0,Calm,Calm,-,N/A,,Clear,0,2012-03-15 11:54:00
7:54 AM,39.9,30.0,68,30.04,10.0,NW,4.6,-,N/A,,Clear,320,2012-03-15 12:54:00
8:54 AM,46.0,28.9,51,30.05,10.0,Calm,Calm,-,N/A,,Clear,0,2012-03-15 13:54:00
9:54 AM,51.1,25.0,36,30.05,10.0,North,9.2,-,N/A,,Clear,10,2012-03-15 14:54:00
10:54 AM,55.9,26.1,32,30.04,10.0,North,9.2,-,N/A,,Clear,10,2012-03-15 15:54:00
11:54 AM,59.0,27.0,29,30.04,10.0,NE,8.1,-,N/A,,Clear,40,2012-03-15 16:54:00
12:54 PM,61.0,27.0,27,30.04,10.0,Calm,Calm,-,N/A,,Clear,0,2012-03-15 17:54:00
1:54 PM,62.1,28.0,28,30.03,10.0,NE,5.8,-,N/A,,Clear,40,2012-03-15 18:54:00
2:54 PM,62.1,28.9,29,30.01,10.0,East,5.8,-,N/A,,Clear,100,2012-03-15 19:54:00
3:54 PM,64.0,28.9,27,30.01,10.0,Calm,Calm,-,N/A,,Clear,0,2012-03-15 20:54:00
4:54 PM,63.0,28.9,28,30.00,10.0,ENE,6.9,-,N/A,,Partly Cloudy,70,2012-03-15 21:54:00
5:54 PM,61.0,28.9,30,30.01,10.0,ENE,4.6,-,N/A,,Partly Cloudy,60,2012-03-15 22:54:00
6:54 PM,57.0,28.9,34,30.03,10.0,NE,3.5,-,N/A,,Clear,50,2012-03-15 23:54:00
7:54 PM,53.1,27.0,37,30.04,10.0,NE,4.6,-,N/A,,Scattered Clouds,50,2012-03-16 00:54:00
8:54 PM,48.0,26.1,42,30.06,10.0,Calm,Calm,-,N/A,,Clear,0,2012-03-16 01:54:00
9:54 PM,42.1,26.1,53,30.06,10.0,Calm,Calm,-,N/A,,Clear,0,2012-03-16 02:54:00
10:54 PM,39.0,28.0,65,30.06,10.0,Calm,Calm,-,N/A,,Clear,0,2012-03-16 03:54:00
11:54 PM,36.0,26.1,67,30.07,10.0,Calm,Calm,-,N/A,,Clear,0,2012-03-16 04:54:00